Temp
-7 -6 -7 -7 -7 -7 -7 -7 -7 -8 -7 -7 -7 -7 -7 -7 -7 -7 -7 -7 -7 -7 -7 -7 -7 -7 -7 -7 -7 -7 -7 -7 -7 -7 -7 -7 -7 -7 -7 -7 -7 -7 -7
-7 -7 -7 -7 -7 -7 -7 -8 -8 -7 -7 -7 -7 -7 -7 -7 -7 -7 -7 -7 -7 -7 -7 -7 -7 -7 -7 -7 -7 -7 -7 -7 -7 -7 -7 -7 -7 -7 -7 -8 -8 -8 -8
-7 -7 -7 -7 -7 -7 -8 -8 -8 -7 -7 -7 -7 -7 -7 -7 -7 -8 -8 -7 -7 -7 -8 -7 -7 -7 -7 -7 -7 -7 -7 -7 -7 -7 -7 -7 -7 -7 -7 -7 -7 -7 -8
-7 -7 -7 -7 -7 -8 -8 -8 -8 -8 -8 -8 -8 -8 -8 -8 -8 -8 -8 -7 -7 -7 -7 -7 -7 -7 -7 -7 -7 -7 -7 -7 -7 -7 -7 -7 -7 -7 -7 -7 -7 -7 -7
-7 -7 -7 -7 -7 -8 -8 -8 -8 -8 -8 -8 -8 -8 -8 -8 -8 -8 -8 -8 -7 -7 -7 -7 -7 -7 -7 -7 -7 -7 -7 -7 -7 -7 -7 -7 -7 -7 -7 -7 -7 -7 -7
-8 -7 -7 -8 -8 -8 -8 -8 -8 -8 -8 -8 -8 -8 -8 -8 -8 -8 -8 -8 -7 -7 -7 -7 -7 -7 -7 -7 -7 -8 -8 -7 -7 -7 -7 -8 -8 -8 -8 -8 -8 -8 -8
-8 -8 -8 -8 -8 -8 -8 -8 -8 -8 -8 -8 -8 -8 -8 -8 -8 -8 -8 -8 -7 -7 -7 -7 -7 -7 -7 -7 -7 -7 -7 -7 -8 -8 -8 -8 -8 -8 -8 -8 -9 -9 -9
-8 -8 -8 -9 -8 -9 -9 -9 -8 -8 -8 -8 -8 -8 -8 -8 -8 -8 -8 -8 -8 -8 -7 -8 -8 -8 -8 -8 -8 -8 -8 -8 -8 -8 -8 -8 -8 -8 -9 -9 -8 -9 -9
-8 -8 -9 -9 -9 -9 -9 -9 -9 -9 -9 -9 -9 -9 -9 -8 -8 -8 -8 -8 -8 -8 -8 -8 -8 -8 -8 -8 -8 -8 -8 -8 -8 -8 -8 -8 -8 -8 -9 -9 -9 -10 -10
-8 -9 -9 -9 -9 -9 -9 -9 -9 -9 -9 -9 -9 -9 -9 -9 -9 -9 -9 -8 -8 -8 -8 -8 -8 -8 -8 -8 -8 -8 -8 -8 -8 -8 -8 -8 -8 -8 -9 -9 -9 -10 -10
-9 -9 -9 -10 -10 -10 -10 -10 -9 -9 -9 -9 -9 -9 -9 -9 -9 -9 -9 -9 -8 -8 -8 -8 -8 -9 -8 -8 -8 -8 -8 -8 -8 -8 -8 -8 -8 -9 -9 -9 -10 -10 -11
-9 -9 -10 -10 -10 -10 -10 -10 -10 -9 -9 -9 -9 -9 -9 -9 -9 -9 -9 -9 -9 -9 -9 -9 -9 -9 -9 -9 -8 -8 -8 -8 -8 -8 -8 -9 -9 -9 -10 -10 -11 -11 -11
-9 -10 -10 -10 -10 -10 -10 -10 -10 -10 -10 -9 -9 -9 -9 -9 -9 -9 -9 -9 -9 -9 -9 -9 -9 -8 -8 -8 -9 -9 -9 -9 -9 -9 -9 -9 -10 -10 -11 -11 -11 -12 -11
-10 -10 -10 -10 -10 -10 -10 -10 -10 -10 -10 -10 -10 -10 -9 -9 -9 -9 -9 -9 -9 -9 -9 -9 -9 -9 -9 -9 -9 -9 -9 -10 -10 -10 -10 -10 -11 -11 -11 -12 -12 -12 -12
-10 -10 -10 -10 -10 -10 -10 -10 -10 -10 -10 -10 -10 -10 -10 -9 -10 -10 -10 -9 -9 -9 -9 -9 -9 -9 -9 -9 -9 -10 -10 -11 -11 -11 -11 -12 -11 -11 -12 -12 -12 -12 -12
-10 -10 -10 -10 -10 -10 -11 -11 -10 -10 -10 -10 -10 -10 -10 -10 -10 -10 -9 -9 -9 -9 -9 -9 -9 -9 -9 -10 -10 -11 -12 -12 -12 -12 -12 -12 -12 -12 -12 -12 -13 -13 -13
-10 -11 -10 -10 -10 -11 -11 -11 -10 -10 -10 -10 -10 -10 -10 -10 -10 -10 -9 -9 -9 -10 -9 -9 -9 -9 -10 -10 -11 -12 -13 -13 -13 -12 -12 -12 -12 -12 -12 -13 -14 -16 -14
-11 -10 -10 -10 -10 -11 -11 -11 -10 -10 -10 -10 -10 -10 -10 -10 -10 -10 -9 -10 -10 -10 -10 -9 -10 -10 -10 -11 -12 -14 -13 -13 -13 -13 -12 -12 -12 -12 -13 -13 -14 -15 -14
-11 -11 -10 -10 -10 -11 -11 -11 -11 -10 -10 -10 -10 -10 -10 -10 -10 -10 -10 -10 -10 -10 -10 -10 -10 -10 -11 -11 -14 -14 -13 -13 -13 -13 -13 -12 -12 -13 -13 -13 -13 -14 -14
-11 -10 -10 -10 -10 -11 -11 -11 -10 -10 -10 -10 -10 -10 -10 -10 -10 -10 -10 -10 -10 -10 -10 -11 -11 -10 -11 -12 -14 -14 -13 -13 -13 -13 -13 -12 -12 -13 -13 -13 -14 -14 -14
-11 -10 -10 -10 -10 -11 -11 -11 -11 -11 -10 -10 -11 -10 -10 -10 -10 -10 -10 -10 -10 -11 -11 -11 -11 -12 -12 -13 -13 -13 -13 -13 -13 -13 -13 -13 -13 -13 -14 -14 -14 -14 -14
-11 -10 -10 -10 -10 -11 -11 -11 -11 -11 -11 -11 -10 -10 -10 -10 -10 -11 -11 -11 -11 -11 -11 -11 -12 -12 -12 -13 -13 -13 -13 -13 -14 -13 -13 -13 -13 -13 -14 -14 -14 -14 -14
-10 -10 -10 -10 -10 -11 -11 -11 -11 -11 -11 -11 -10 -10 -11 -11 -11 -11 -11 -11 -11 -11 -12 -12 -12 -12 -12 -12 -13 -13 -13 -13 -13 -14 -14 -13 -14 -14 -14 -14 -14 -14 -13
-10 -10 -10 -10 -11 -11 -11 -11 -11 -11 -11 -11 -11 -11 -11 -11 -11 -11 -11 -12 -12 -12 -12 -12 -12 -12 -12 -12 -12 -13 -13 -13 -13 -13 -13 -14 -14 -14 -14 -14 -14 -13 -13
-10 -10 -10 -11 -11 -11 -11 -11 -11 -11 -11 -11 -11 -11 -11 -11 -11 -12 -12 -12 -12 -12 -12 -12 -13 -12 -13 -12 -13 -13 -13 -13 -14 -14 -13 -13 -14 -14 -14 -14 -14 -14 -13
-11 -11 -11 -11 -11 -11 -11 -11 -11 -11 -11 -11 -11 -11 -11 -12 -12 -12 -12 -12 -12 -12 -12 -13 -13 -13 -13 -13 -13 -14 -14 -13 -13 -13 -14 -14 -13 -13 -14 -14 -14 -14 -14
Height
5889 5889 5889 5889 5889 5889 5890 5889 5889 5890 5889 5888 5888 5888 5888 5887 5886 5885 5883 5882 5880 5879 5877 5876 5875 5873 5872 5870 5869 5867 5866 5864 5863 5862 5861 5860 5859 5858 5857 5856 5855 5854 5853
5890 5889 5889 5890 5890 5890 5890 5890 5889 5890 5890 5889 5889 5888 5888 5887 5886 5885 5883 5882 5880 5878 5877 5875 5873 5872 5870 5869 5867 5866 5864 5863 5861 5860 5859 5858 5857 5855 5854 5853 5852 5851 5849
5890 5890 5890 5890 5890 5890 5890 5890 5890 5890 5890 5889 5889 5888 5887 5886 5886 5884 5883 5881 5879 5878 5876 5874 5872 5870 5868 5867 5865 5864 5862 5861 5859 5858 5856 5854 5853 5852 5851 5850 5849 5847 5846
5890 5891 5890 5890 5890 5890 5891 5890 5890 5890 5890 5889 5888 5887 5886 5885 5884 5883 5882 5880 5878 5876 5875 5873 5870 5868 5866 5865 5863 5861 5859 5858 5856 5854 5853 5851 5849 5848 5847 5845 5844 5843 5842
5890 5891 5890 5890 5890 5890 5890 5890 5890 5890 5889 5888 5887 5886 5885 5884 5883 5882 5880 5878 5877 5875 5873 5871 5869 5866 5864 5862 5860 5858 5856 5854 5852 5850 5849 5847 5845 5843 5842 5840 5838 5837 5835
5890 5890 5890 5890 5889 5889 5890 5890 5890 5889 5888 5887 5886 5885 5884 5883 5882 5880 5879 5877 5875 5872 5870 5868 5866 5864 5861 5859 5857 5855 5853 5851 5849 5847 5844 5842 5840 5838 5835 5834 5833 5831 5830
5889 5889 5889 5889 5888 5888 5888 5888 5888 5888 5887 5886 5885 5884 5883 5882 5881 5879 5877 5875 5873 5870 5868 5866 5864 5862 5860 5858 5855 5853 5851 5849 5846 5843 5841 5839 5836 5833 5831 5828 5827 5825 5824
5887 5888 5887 5887 5887 5887 5887 5887 5886 5886 5885 5885 5884 5883 5881 5880 5879 5877 5876 5874 5872 5869 5867 5864 5862 5860 5857 5855 5853 5850 5848 5845 5843 5840 5836 5833 5830 5828 5825 5822 5820 5819 5817
5885 5886 5886 5886 5885 5885 5885 5885 5884 5884 5883 5883 5883 5881 5880 5878 5877 5876 5874 5872 5870 5867 5865 5862 5860 5857 5854 5851 5849 5846 5843 5841 5838 5835 5832 5828 5825 5822 5819 5816 5813 5811 5809
5884 5884 5883 5883 5883 5883 5883 5883 5882 5882 5882 5881 5881 5879 5878 5876 5875 5873 5871 5868 5867 5864 5862 5859 5856 5853 5850 5847 5844 5840 5837 5834 5831 5828 5825 5822 5818 5814 5810 5807 5805 5803 5801
5881 5881 5880 5881 5880 5880 5881 5881 5880 5880 5880 5879 5878 5877 5876 5874 5872 5870 5868 5866 5863 5860 5858 5855 5851 5848 5845 5842 5838 5834 5831 5827 5822 5819 5816 5812 5809 5805 5801 5798 5794 5792 5790
5878 5878 5877 5877 5878 5877 5878 5878 5878 5878 5877 5876 5875 5874 5873 5871 5869 5867 5865 5862 5859 5857 5853 5850 5846 5843 5839 5835 5831 5827 5822 5818 5814 5810 5806 5802 5798 5794 5790 5786 5783 5781 5779
5875 5875 5874 5874 5874 5875 5875 5875 5876 5875 5874 5873 5872 5871 5869 5867 5865 5863 5861 5858 5855 5851 5848 5844 5840 5836 5832 5828 5823 5819 5814 5809 5804 5799 5794 5790 5786 5782 5778 5774 5771 5770 5768
5872 5872 5871 5872 5871 5872 5872 5872 5872 5871 5871 5870 5869 5868 5866 5864 5862 5860 5856 5853 5850 5846 5842 5837 5833 5829 5824 5819 5813 5808 5803 5798 5793 5788 5783 5779 5775 5772 5769 5766 5762 5759 5758
5867 5868 5867 5868 5868 5869 5869 5868 5868 5868 5867 5867 5866 5864 5863 5860 5858 5855 5852 5848 5844 5840 5835 5831 5825 5820 5814 5807 5801 5796 5790 5785 5781 5777 5773 5769 5766 5762 5759 5756 5752 5749 5747
5863 5864 5864 5864 5865 5865 5865 5865 5864 5864 5864 5863 5862 5860 5858 5856 5853 5850 5847 5843 5838 5833 5828 5823 5817 5810 5803 5796 5789 5783 5778 5774 5771 5767 5764 5760 5756 5753 5749 5743 5737 5732 5734
5859 5860 5860 5861 5861 5861 5861 5861 5861 5859 5859 5858 5856 5855 5853 5850 5848 5845 5841 5836 5831 5826 5820 5815 5808 5801 5793 5784 5777 5771 5768 5765 5763 5760 5756 5753 5749 5744 5739 5731 5720 5713 5720
5855 5855 5856 5857 5857 5857 5857 5857 5856 5855 5855 5853 5852 5850 5848 5845 5842 5838 5834 5829 5824 5819 5812 5806 5800 5791 5782 5773 5765 5762 5761 5759 5756 5753 5749 5746 5742 5737 5732 5725 5718 5715 5718
5850 5851 5852 5852 5853 5853 5853 5852 5851 5851 5850 5848 5847 5845 5843 5839 5835 5831 5827 5822 5817 5811 5804 5798 5790 5782 5772 5762 5757 5756 5755 5753 5750 5747 5744 5741 5736 5731 5727 5723 5720 5717 5717
5846 5846 5847 5847 5847 5847 5847 5847 5846 5846 5844 5843 5841 5839 5836 5832 5828 5825 5821 5816 5809 5802 5796 5790 5782 5774 5764 5756 5754 5752 5751 5749 5745 5742 5738 5735 5732 5728 5724 5721 5718 5717 5716
5841 5841 5841 5841 5842 5842 5842 5841 5841 5839 5839 5837 5835 5832 5829 5826 5822 5818 5813 5807 5801 5795 5789 5783 5776 5767 5760 5754 5752 5749 5747 5744 5741 5738 5735 5731 5728 5726 5723 5720 5717 5716 5715
5836 5835 5835 5835 5836 5836 5836 5835 5835 5834 5832 5830 5828 5825 5822 5818 5814 5810 5805 5799 5793 5787 5781 5777 5770 5762 5757 5752 5749 5746 5742 5740 5737 5734 5731 5728 5725 5722 5721 5719 5716 5715 5714
5831 5831 5830 5830 5831 5830 5830 5829 5829 5827 5825 5823 5820 5817 5813 5810 5806 5801 5795 5789 5783 5778 5775 5771 5764 5758 5752 5748 5744 5742 5738 5734 5732 5730 5728 5725 5722 5720 5718 5716 5715 5714 5713
5825 5825 5825 5825 5825 5825 5823 5823 5821 5820 5818 5815 5812 5809 5805 5801 5797 5791 5785 5780 5775 5773 5769 5764 5760 5754 5748 5743 5739 5736 5733 5730 5727 5724 5724 5721 5719 5717 5715 5713 5712 5711 5710
5818 5819 5819 5819 5819 5818 5817 5815 5813 5811 5808 5806 5803 5800 5796 5792 5787 5782 5777 5772 5769 5766 5762 5759 5754 5749 5744 5738 5733 5729 5727 5726 5724 5720 5717 5716 5715 5713 5712 5710 5709 5708 5707
5812 5812 5812 5811 5811 5810 5809 5806 5803 5801 5799 5797 5794 5791 5787 5782 5777 5773 5768 5765 5762 5758 5754 5751 5747 5743 5739 5734 5729 5725 5722 5720 5718 5717 5713 5710 5708 5709 5708 5706 5705 5704 5703
Wind_Speed
8 7 7 6 5 5 4 4 4 4 4 4 4 5 6 8 9 10 11 12 12 13 13 13 14 14 14 13 13 13 13 13 13 13 13 14 16 18 19 21 22 23 24
7 7 7 5 4 4 2 2 2 1 2 3 4 6 7 8 9 10 11 13 14 14 15 15 15 16 16 16 15 16 16 15 15 17 18 17 18 18 19 19 19 20 20
5 6 6 6 6 4 1 0 1 1 2 3 5 6 8 9 10 11 12 13 15 15 16 17 18 17 17 18 18 17 18 18 18 18 19 20 21 23 25 25 26 25 25
5 5 6 6 6 4 3 2 2 3 3 4 5 7 8 9 11 13 14 15 16 17 19 20 20 20 20 20 21 20 20 20 20 20 21 22 24 24 25 26 27 28 30
3 6 6 6 6 6 6 5 5 5 5 6 6 7 9 10 11 13 16 18 20 20 22 22 22 22 22 22 21 21 20 22 22 23 23 23 23 25 26 27 29 30 30
3 4 7 10 9 8 8 8 8 7 7 7 8 8 9 11 13 15 17 20 21 22 23 23 22 19 18 18 19 19 17 18 19 20 21 22 23 24 27 27 28 30 31
8 9 10 12 12 11 10 10 10 9 9 9 9 9 10 11 14 16 18 20 22 22 19 17 16 17 17 17 18 19 19 20 23 25 25 25 26 27 29 30 29 31 31
12 13 13 13 12 12 13 12 11 11 10 10 10 10 11 12 14 16 19 20 21 20 19 19 20 21 22 22 23 24 26 28 30 32 33 32 33 32 32 34 35 34 36
15 15 14 14 14 14 14 14 13 12 12 11 11 10 11 12 15 17 20 22 23 24 24 25 25 25 26 27 28 30 31 32 33 35 35 36 37 37 38 39 41 41 41
15 16 17 17 16 16 15 15 15 13 12 11 11 11 11 14 17 20 22 26 27 27 28 29 28 29 31 32 32 34 35 36 37 38 38 39 40 42 45 46 46 46 47
17 19 19 17 16 17 16 15 15 14 13 12 12 12 15 16 21 25 27 27 29 31 30 31 31 32 33 35 35 36 39 41 41 41 43 44 45 47 48 50 52 52 48
19 21 20 18 17 17 16 16 16 15 14 14 13 14 18 22 26 29 30 30 30 32 33 33 34 37 38 39 40 43 43 45 45 47 48 49 49 50 51 51 51 50 48
21 17 17 18 17 17 18 17 17 17 15 15 16 18 20 22 28 27 28 30 33 34 36 36 37 40 43 44 46 48 49 49 50 51 52 51 49 48 46 46 46 47 45
20 18 19 19 17 18 19 19 18 18 17 17 18 19 21 23 25 29 31 35 36 37 37 39 41 44 48 51 53 55 55 54 52 51 49 47 43 41 42 43 46 47 44
20 19 17 18 18 19 20 20 20 19 18 19 21 23 25 27 29 33 35 37 38 38 39 43 45 49 54 58 60 61 58 53 48 44 42 41 40 39 42 48 52 51 47
20 19 18 19 17 19 21 21 20 19 20 23 24 27 28 31 34 36 38 38 39 41 44 47 51 56 60 63 64 62 54 45 41 40 39 39 38 39 45 49 54 53 45
22 21 21 21 20 21 21 22 21 22 23 26 28 30 32 34 35 37 38 39 41 46 49 51 56 60 64 58 55 51 42 38 38 37 35 34 35 40 38 42 41 30 30
22 22 22 22 22 22 22 24 25 24 27 29 30 31 34 34 36 37 39 41 45 49 52 55 58 60 55 52 46 37 34 34 33 32 33 31 33 33 31 31 23 14 18
23 23 23 23 22 23 24 26 26 26 29 30 32 34 33 35 36 39 41 45 49 52 54 56 57 50 50 45 32 28 30 31 31 31 29 29 29 25 23 22 17 14 15
24 25 24 23 24 25 26 27 29 30 31 32 33 34 35 36 38 40 44 48 52 53 55 56 44 44 44 35 22 24 27 28 28 28 27 26 23 20 18 16 14 11 10
25 25 24 25 25 26 28 29 31 32 34 33 34 36 36 37 40 44 48 52 52 53 55 39 39 37 34 26 20 21 25 27 27 26 24 24 21 19 16 13 11 8 6
25 26 25 25 27 30 31 31 32 33 34 35 37 36 37 40 43 48 51 52 52 53 42 32 34 32 28 21 23 24 24 26 24 25 23 23 21 21 18 13 11 8 7
25 26 25 25 28 31 31 31 32 34 35 37 37 39 42 44 48 52 52 53 53 45 30 30 30 30 28 23 24 28 27 25 21 23 22 21 22 19 19 15 12 11 9
26 25 24 26 28 30 31 33 34 35 37 38 40 42 44 48 51 52 52 52 39 29 32 31 29 29 28 27 26 27 29 25 21 22 22 20 21 19 19 18 15 13 13
25 26 26 26 28 31 32 33 35 36 40 42 43 46 48 51 52 52 51 38 30 31 33 34 29 27 28 27 26 25 24 22 22 23 25 22 19 21 18 20 18 16 15
27 26 27 29 31 32 34 36 38 40 42 44 47 50 52 53 53 49 38 32 32 35 36 36 33 31 28 27 25 23 21 21 22 25 26 25 23 19 18 21 22 21 20
Wind_Direction
79 65 59 48 46 48 55 65 60 47 52 50 34 14 2 351 345 343 342 341 340 339 338 336 333 332 332 333 330 320 312 310 310 307 304 299 291 285 281 279 279 279 278
75 61 45 32 29 31 36 50 58 59 48 17 357 350 345 341 340 338 339 339 337 335 333 332 329 326 324 322 323 323 320 316 307 301 299 300 299 296 293 290 287 283 281
63 53 46 19 10 2 339 242 178 263 321 335 338 339 336 337 336 335 337 335 334 332 330 328 327 324 322 320 318 318 317 314 311 307 302 298 295 292 292 290 288 286 286
50 23 22 11 359 331 300 263 252 287 301 311 322 331 331 331 331 331 333 332 331 331 327 325 323 322 320 317 314 311 310 309 311 312 312 310 305 300 294 290 287 286 284
38 357 358 357 340 318 296 277 270 278 287 297 309 315 318 323 324 327 330 331 329 325 323 321 318 315 314 313 310 309 308 307 306 304 303 301 301 300 297 296 294 292 289
306 331 338 337 318 301 288 280 275 278 284 289 293 301 309 317 323 325 329 333 332 327 321 319 319 320 321 322 322 320 320 319 322 321 315 309 304 299 296 292 291 289 287
291 305 312 311 303 290 279 274 272 273 278 282 288 298 307 316 324 327 329 335 333 330 326 332 336 336 336 335 334 330 326 323 320 320 317 314 314 312 304 297 290 288 287
285 298 304 303 291 284 277 270 268 269 274 280 289 301 312 323 328 332 336 335 335 331 326 323 321 323 324 323 321 318 316 315 315 315 313 310 308 305 302 298 295 291 286
282 290 295 291 281 271 266 265 266 267 272 281 292 303 316 323 330 336 335 334 333 333 321 318 321 321 317 317 316 315 313 310 306 304 301 299 296 294 293 292 291 290 287
273 280 289 286 273 267 262 261 263 266 272 281 292 304 319 326 331 335 333 333 332 328 324 319 316 315 316 316 313 311 309 307 302 300 296 294 292 289 288 288 289 287 285
272 284 286 280 266 262 259 260 265 270 274 280 290 306 318 328 332 331 331 328 325 324 320 317 316 315 314 313 310 310 309 306 301 299 297 293 290 289 288 287 287 288 286
278 286 286 274 262 260 259 261 265 271 274 278 289 302 311 321 318 319 320 322 324 320 320 319 317 316 316 316 313 309 306 303 299 295 294 292 292 291 290 289 288 287 286
281 284 288 273 265 260 258 261 264 268 273 282 287 299 305 311 314 315 314 319 321 322 322 321 319 318 317 313 310 307 302 300 298 296 294 293 292 292 294 292 290 287 284
277 278 284 272 265 255 257 262 265 269 272 282 291 304 310 308 311 310 317 321 323 322 319 318 317 316 313 311 308 305 303 301 299 297 295 293 293 294 292 292 292 289 287
276 283 278 269 266 257 257 263 267 272 281 287 295 299 303 308 313 316 319 321 320 316 316 315 316 314 312 311 309 307 305 303 298 294 294 295 296 295 294 292 288 284 279
274 278 278 274 259 265 263 262 266 275 285 291 294 297 303 308 309 314 319 316 315 313 313 316 316 316 313 310 306 303 302 299 295 295 296 297 297 296 296 295 289 277 266
271 273 277 275 267 269 262 264 270 278 287 293 298 300 304 307 310 315 312 312 311 314 315 317 316 314 312 310 305 301 300 297 297 297 300 299 299 303 304 310 306 274 247
269 272 275 270 273 265 259 266 273 279 289 293 297 301 305 308 311 308 308 310 313 314 315 316 315 315 315 313 306 302 300 299 300 303 304 302 302 304 311 320 318 284 253
268 269 273 267 270 261 265 269 272 282 288 293 296 301 306 306 305 306 308 311 311 313 314 315 318 320 322 322 315 305 303 303 305 309 308 307 315 310 313 317 315 295 269
266 268 270 265 263 263 267 269 275 283 289 293 297 301 302 303 304 305 308 309 312 314 315 319 322 328 331 331 325 313 309 307 308 312 314 309 324 324 323 323 316 300 284
265 266 266 261 261 264 266 271 278 283 289 293 297 299 302 302 302 305 308 311 312 313 315 318 324 331 337 337 331 317 310 308 308 313 313 309 318 323 324 325 325 321 297
262 265 266 266 264 264 267 273 279 284 290 294 297 298 297 299 302 306 308 310 310 313 314 316 325 331 331 330 322 315 312 309 308 313 313 304 310 317 317 317 314 308 297
261 263 262 264 264 266 272 278 283 288 290 293 293 294 296 300 303 306 308 310 312 311 311 311 322 328 321 316 314 311 310 306 302 309 311 303 298 306 311 309 304 294 286
258 261 262 265 267 271 276 280 284 287 289 287 289 292 296 300 304 305 307 309 309 304 305 308 315 324 323 309 304 306 307 303 296 303 305 305 289 289 297 301 302 291 282
261 261 263 264 267 270 275 279 283 284 283 286 290 293 298 301 303 305 307 306 302 300 305 307 311 315 321 322 308 305 303 298 292 297 304 298 294 284 278 286 290 288 281
263 263 266 267 269 273 276 279 279 280 284 288 292 296 300 303 303 304 301 298 296 300 303 303 305 309 312 317 318 307 301 296 295 292 297 301 288 286 285 272 274 276 275